(202852) = 2006 EB5 = 2007 HT49 = 2008 TH92

Discovered at Crni Vrh on 2008-10-04 by Crni Vrh.

Orbit

Orbit type: Main Belt

Note: WebGL enabled browser required.

epoch2023-02-25.0
epoch JD2460000.5
perihelion date2021-03-28.31038
perihelion JD2459301.81038
argument of perihelion (°)223.57744
ascending node (°)131.94837
inclination (°)4.95228
eccentricity0.2961215
perihelion distance (AU)1.8436554
Tisserand w.r.t. Jupiter3.3
ΔV w.r.t. Earth (km/sec)8.7
semimajor axis (AU)2.6192807
mean anomaly (°)162.44826
mean daily motion (°/day)0.23250420
aphelion distance (AU)3.395
period (years)4.24
P-vector [x]0.99503868
P-vector [y]-0.04948028
P-vector [z]-0.08631185
Q-vector [x]0.07599860
Q-vector [y]0.93790380
Q-vector [z]0.33846814
absolute magnitude16.33
phase slope0.15
uncertainty0
referenceMPO 745323
observations used324
oppositions16
arc length (days)7705
first opposition used2002
last opposition used2023
residual rms (arc-secs)0.73
perturbers coarse indicatorM-v
perturbers precise indicator003Ek
first observation date used2002-03-12.0
last observation date used2023-04-16.0
computer nameMPCLINUX
JD of orbit computation2456731.558719
perihelion JD uncertainty (days)2.4654E-05
argument of perihelion uncertainty (°)5.0450E-05
ascending node uncertainty (°)4.9869E-05
inclination uncertainty (°)4.8602E-06
eccentricity uncertainty 5.3296E-08
perihelion distance uncertainty (AU)1.4840E-07
Minimum Orbit Intersection Distances (in AU)
for orbit epoch: 2460000.5, reference: E2023-H35
Mercury1.47101
Venus1.11681
Earth0.841
Mars0.45785
Jupiter2.04553
Saturn6.01985
Uranus15.0563
Neptune27.2473

Observations

334 total observations over interval: 2002 03 12.31808 – 2023 04 16.249824
These data are available for download (format description).

Date (UT) J2000 RA J2000 Dec Magn Location Ref
2002 03 12.31808 12 05 10.76 +04 48 27.6 22.0 V 691 – Steward Observatory, Kitt Peak-Spacewatch MPS 261767
2002 03 12.33962 12 05 09.70 +04 48 36.2 22.0 V 691 – Steward Observatory, Kitt Peak-Spacewatch MPS 261767
2002 03 12.36068 12 05 08.68 +04 48 44.1 21.2 V 691 – Steward Observatory, Kitt Peak-Spacewatch MPS 261767
2004 12 13.17580 05 54 50.83 +17 21 39.3 19.5 V 691 – Steward Observatory, Kitt Peak-Spacewatch MPS 261767
2004 12 13.20195 05 54 49.07 +17 21 41.8 19.5 V 691 – Steward Observatory, Kitt Peak-Spacewatch MPS 261767
2004 12 13.22765 05 54 47.34 +17 21 44.3 19.4 V 691 – Steward Observatory, Kitt Peak-Spacewatch MPS 261767
2005 10 31.60891 10 55 24.309 +08 06 10.92 21.3 R 568 – Maunakea MPS 261767
2005 10 31.61434 10 55 24.639 +08 06 09.12 21.1 R 568 – Maunakea MPS 261767
2005 10 31.61962 10 55 24.945 +08 06 07.75 21.2 R 568 – Maunakea MPS 261767
2006 03 02.19159 11 11 37.17 +09 13 41.1 21.1 V 691 – Steward Observatory, Kitt Peak-Spacewatch MPS 166390
2006 03 02.20892 11 11 36.30 +09 13 47.6 21.3 V 691 – Steward Observatory, Kitt Peak-Spacewatch MPS 166390
2006 03 02.22625 11 11 35.43 +09 13 54.0 21.1 V 691 – Steward Observatory, Kitt Peak-Spacewatch MPS 166390
2006 03 03.41012 11 10 36.40 +09 21 12.8 21.5 V G96 – Mt. Lemmon Survey MPS 166390
2006 03 03.41641 11 10 36.19 +09 21 14.7 22.2 V G96 – Mt. Lemmon Survey MPS 166390
2006 03 03.42264 11 10 35.83 +09 21 17.1 22.0 V G96 – Mt. Lemmon Survey MPS 166390
2006 03 03.42876 11 10 35.50 +09 21 19.4 21.9 V G96 – Mt. Lemmon Survey MPS 166390
2007 04 20.34789 15 16 16.35 -10 35 11.1 21.2 V 691 – Steward Observatory, Kitt Peak-Spacewatch MPS 208267
2007 04 20.36745 15 16 15.48 -10 35 05.9 20.9 V 691 – Steward Observatory, Kitt Peak-Spacewatch MPS 208267
2007 04 20.38654 15 16 14.62 -10 35 00.9 21.0 V 691 – Steward Observatory, Kitt Peak-Spacewatch MPS 208267
2007 04 24.31027 15 13 12.04 -10 18 10.2 21.1 V 691 – Steward Observatory, Kitt Peak-Spacewatch MPS 208267
2007 04 24.32790 15 13 11.13 -10 18 05.7 20.9 V 691 – Steward Observatory, Kitt Peak-Spacewatch MPS 208267
2007 04 24.34553 15 13 10.31 -10 18 01.3 20.7 V 691 – Steward Observatory, Kitt Peak-Spacewatch MPS 208267
2007 06 22.26432 14 29 45.88 -07 53 37.5 20.7 V G96 – Mt. Lemmon Survey MPS 261767
2007 06 22.27090 14 29 45.81 -07 53 37.5 20.6 V G96 – Mt. Lemmon Survey MPS 261767
2007 06 22.27762 14 29 45.74 -07 53 37.8 21.1 V G96 – Mt. Lemmon Survey MPS 261767
2007 06 22.28409 14 29 45.60 -07 53 38.9 21.4 V G96 – Mt. Lemmon Survey MPS 261767
2008 09 07.45918 03 20 34.44 +11 05 18.9 19.0 V 703 – Catalina Sky Survey MPS 261767
2008 09 07.47124 03 20 34.98 +11 05 17.7 19.1 V 703 – Catalina Sky Survey MPS 261767
2008 09 07.47833 03 20 35.37 +11 05 16.5 19.1 V 703 – Catalina Sky Survey MPS 261767
2008 09 07.48540 03 20 35.73 +11 05 17.0 18.7 V 703 – Catalina Sky Survey MPS 261767
2008 09 23.35306 03 29 52.54 +10 35 28.3 18.9 C 704 – Lincoln Laboratory ETS, New Mexico MPS 288599
2008 09 23.36499 03 29 52.75 +10 35 25.5 18.9 C 704 – Lincoln Laboratory ETS, New Mexico MPS 288599
2008 09 23.37691 03 29 52.95 +10 35 23.5 18.7 C 704 – Lincoln Laboratory ETS, New Mexico MPS 288599
2008 09 23.38882 03 29 53.09 +10 35 21.5 19.0 C 704 – Lincoln Laboratory ETS, New Mexico MPS 288599
2008 09 23.40075 03 29 53.33 +10 35 18.6 19.2 C 704 – Lincoln Laboratory ETS, New Mexico MPS 288599
2008 10 01.34463 03 31 02.48 +10 08 57.3   704 – Lincoln Laboratory ETS, New Mexico MPS 406906
2008 10 01.35698 03 31 02.50 +10 08 55.2   704 – Lincoln Laboratory ETS, New Mexico MPS 406906
2008 10 01.36933 03 31 02.33 +10 08 50.9   704 – Lincoln Laboratory ETS, New Mexico MPS 406906
2008 10 01.38160 03 31 02.38 +10 08 48.5   704 – Lincoln Laboratory ETS, New Mexico MPS 406906
2008 10 01.39388 03 31 02.33 +10 08 44.9   704 – Lincoln Laboratory ETS, New Mexico MPS 406906
2008 10 04.96931 03 30 45.62 +09 54 55.5 18.1 R 106 – Crni Vrh MPS 260373
2008 10 04.97893 03 30 45.53 +09 54 53.2 18.3 R 106 – Crni Vrh MPS 260373
2008 10 04.98855 03 30 45.39 +09 54 51.2 18.4 R 106 – Crni Vrh MPS 260373
2008 10 04.99818 03 30 45.31 +09 54 47.6 18.4 R 106 – Crni Vrh MPS 260373
2008 10 07.37800 03 30 17.78 +09 45 08.2 18.4 V 703 – Catalina Sky Survey MPS 260373
2008 10 07.38591 03 30 17.60 +09 45 07.8 17.9 V 703 – Catalina Sky Survey MPS 260373
2008 10 07.39388 03 30 17.53 +09 45 04.6 18.6 V 703 – Catalina Sky Survey MPS 260373
2008 10 07.40176 03 30 17.35 +09 45 02.8 18.8 V 703 – Catalina Sky Survey MPS 260373
2008 10 23.04465 03 22 27.94 +08 36 31.4 18.7 V A50 – Andrushivka Astronomical Observatory MPS 261767
2008 10 23.04623 03 22 27.86 +08 36 30.7 18.5 V A50 – Andrushivka Astronomical Observatory MPS 261767
2008 10 23.04777 03 22 27.79 +08 36 30.6 18.5 V A50 – Andrushivka Astronomical Observatory MPS 261767
2008 10 23.09525 03 22 25.64 +08 36 17.6 18.7 V A50 – Andrushivka Astronomical Observatory MPS 261767
2008 10 25.30703 03 20 45.51 +08 26 47.5 18.5   704 – Lincoln Laboratory ETS, New Mexico MPS 261767
2008 10 25.31848 03 20 44.93 +08 26 44.4 19.1   704 – Lincoln Laboratory ETS, New Mexico MPS 261767
2008 10 25.33018 03 20 44.31 +08 26 41.3 19.1   704 – Lincoln Laboratory ETS, New Mexico MPS 261767
2008 10 25.34165 03 20 43.73 +08 26 38.6 18.7   704 – Lincoln Laboratory ETS, New Mexico MPS 261767
2008 10 25.35312 03 20 43.19 +08 26 35.8 18.8   704 – Lincoln Laboratory ETS, New Mexico MPS 261767
2008 10 30.25834 03 16 39.66 +08 06 30.3 18.3   704 – Lincoln Laboratory ETS, New Mexico MPS 261767
2008 10 30.27009 03 16 39.02 +08 06 27.2 18.6   704 – Lincoln Laboratory ETS, New Mexico MPS 261767
2008 10 30.28173 03 16 38.39 +08 06 24.6 18.5   704 – Lincoln Laboratory ETS, New Mexico MPS 261767
2008 10 30.29336 03 16 37.76 +08 06 21.9 19.0   704 – Lincoln Laboratory ETS, New Mexico MPS 261767
2008 10 30.30505 03 16 37.09 +08 06 19.0 18.7   704 – Lincoln Laboratory ETS, New Mexico MPS 261767
2008 11 06.22506 03 10 23.26 +07 41 54.9 18.0 V 703 – Catalina Sky Survey MPS 263414
2008 11 06.23284 03 10 22.83 +07 41 53.8 18.2 V 703 – Catalina Sky Survey MPS 263414
2008 11 06.24072 03 10 22.26 +07 41 51.9 18.0 V 703 – Catalina Sky Survey MPS 263414
2008 11 06.24854 03 10 21.90 +07 41 51.2 18.2 V 703 – Catalina Sky Survey MPS 263414
2008 11 06.35229 03 10 15.88 +07 41 30.7 17.8 V 703 – Catalina Sky Survey MPS 263414
2008 11 06.36216 03 10 15.31 +07 41 29.5 17.9 V 703 – Catalina Sky Survey MPS 263414
2008 11 06.37199 03 10 14.73 +07 41 27.2 17.9 V 703 – Catalina Sky Survey MPS 263414
2008 11 06.38186 03 10 14.16 +07 41 25.5 17.9 V 703 – Catalina Sky Survey MPS 263414
2008 11 08.28453 03 08 29.36 +07 35 49.6 18.0 V G96 – Mt. Lemmon Survey MPS 264672
2008 11 08.29216 03 08 28.93 +07 35 47.2 17.5 V G96 – Mt. Lemmon Survey MPS 264672
2008 11 08.29979 03 08 28.50 +07 35 46.0 17.6 V G96 – Mt. Lemmon Survey MPS 264672
2008 11 18.29835 02 59 37.10 +07 15 44.5 18.2 V 703 – Catalina Sky Survey MPS 265327
2008 11 18.30437 02 59 36.85 +07 15 43.9 18.3 V 703 – Catalina Sky Survey MPS 265327
2008 11 18.31049 02 59 36.49 +07 15 43.1 18.2 V 703 – Catalina Sky Survey MPS 265327
2008 11 18.31655 02 59 36.09 +07 15 42.8 18.3 V 703 – Catalina Sky Survey MPS 265327
2008 11 27.89997 02 52 35.06 +07 13 35.1 18.6 V J75 – OAM Observatory, La Sagra MPS 267637
2008 11 27.91277 02 52 34.53 +07 13 35.3 18.6 V J75 – OAM Observatory, La Sagra MPS 267637
2008 11 27.92584 02 52 34.04 +07 13 35.9 18.5 V J75 – OAM Observatory, La Sagra MPS 267637
2008 11 30.19319 02 51 13.81 +07 15 45.0 18.9   704 – Lincoln Laboratory ETS, New Mexico MPS 267637
2008 11 30.20560 02 51 13.36 +07 15 45.8 19.2   704 – Lincoln Laboratory ETS, New Mexico MPS 267637
2008 11 30.21804 02 51 12.88 +07 15 46.9 19.0   704 – Lincoln Laboratory ETS, New Mexico MPS 267637
2008 11 30.23049 02 51 12.44 +07 15 47.9 19.2   704 – Lincoln Laboratory ETS, New Mexico MPS 267637
2008 11 30.24294 02 51 12.00 +07 15 48.8 19.0   704 – Lincoln Laboratory ETS, New Mexico MPS 267637
2008 12 01.34439 02 50 35.95 +07 17 11.0 18.2 V G96 – Mt. Lemmon Survey MPS 267637
2008 12 01.35012 02 50 35.73 +07 17 11.7 18.1 V G96 – Mt. Lemmon Survey MPS 267637
2008 12 01.35578 02 50 35.59 +07 17 12.3 18.4 V G96 – Mt. Lemmon Survey MPS 267637
